EW3302 Weather Reports


time (UTC)temp
F
wind
direction
speed
knots
gust
knots
rain 1hr
in
rain 24hr
in
rain mn
in
humidity
%
barometer
mb
20260508070516 48 90 1.7 6.1 0.00 0.00 0.00 50 1024.0
20260508065536 47 113 3.5 7.0 0.00 0.00 0.00 53 1024.0
20260508064536 46 158 1.7 3.5 0.00 0.00 0.00 51 1023.9
20260508063516 46 23 1.7 5.2 0.00 0.00 0.00 53 1023.9
20260508062516 46 68 0.9 3.5 0.00 0.00 0.00 55 1023.8
20260508061516 45 90 1.7 3.5 0.00 0.00 0.00 58 1023.7
20260508060516 43 90 2.6 6.1 0.00 0.00 0.00 62 1023.6
20260508055516 42 90 1.7 4.3 0.00 0.00 0.00 63 1023.6
20260508054516 41 90 2.6 6.1 0.00 0.00 0.00 66 1023.6
20260508053516 40 90 1.7 4.3 0.00 0.00 0.00 67 1023.6
20260508052556 39 90 1.7 5.2 0.00 0.00 0.00 69 1023.6
20260508051516 39 90 1.7 4.3 0.00 0.00 0.00 70 1023.5
20260508050516 37 113 2.6 4.3 0.00 0.00 0.00 74 1023.3
20260508045516 36 90 1.7 4.3 0.00 0.00 0.00 77 1023.3
20260508044516 35 90 1.7 2.6 0.00 0.00 0.00 80 1023.2
20260508043516 34 90 0.9 1.7 0.00 0.00 0.00 81 1023.1
20260508042536 34 0.0 0.9 0.00 0.00 0.00 81 1023.1
20260508041516 33 0.0 0.9 0.00 0.00 0.00 84 1023.1
20260508040516 31 0.0 0.0 0.00 0.00 0.00 89 1022.9
20260508035516 29 0.0 0.0 0.00 0.00 0.00 88 1022.8
20260508034516 29 0.0 0.0 0.00 0.00 0.00 88 1022.7
20260508033516 28 0.0 0.0 0.00 0.00 0.00 87 1022.6
20260508032516 28 0.0 0.0 0.00 0.00 0.00 87 1022.6
20260508031516 28 0.0 0.0 0.00 0.00 0.00 87 1022.6
20260508030516 28 0.0 0.0 0.00 0.00 0.00 86 1022.5
20260508025516 28 0.0 0.0 0.00 0.00 0.00 86 1022.4
20260508024516 28 0.0 0.0 0.00 0.00 0.00 85 1022.3
20260508023535 28 0.0 0.0 0.00 0.00 0.00 85 1022.2
20260508021516 28 0.0 0.9 0.00 0.00 0.00 84 1022.1
20260508020556 29 0.0 0.9 0.00 0.00 0.00 84 1022.0
20260508015516 29 0.0 0.0 0.00 0.00 0.00 83 1021.9
20260508014515 29 0.0 0.9 0.00 0.00 0.00 83 1021.8
20260508013516 29 0.0 0.0 0.00 0.00 0.00 83 1021.7
20260508012536 29 0.0 0.9 0.00 0.00 0.00 82 1021.6
20260508011536 29 0.0 0.0 0.00 0.00 0.00 82 1021.4
20260508010516 30 0.0 0.0 0.00 0.00 0.00 81 1021.4
20260508005516 30 0.0 0.9 0.00 0.00 0.00 80 1021.3
20260508004516 30 0.0 0.0 0.00 0.00 0.00 80 1021.2
20260508003515 30 338 0.9 0.9 0.00 0.00 0.00 80 1021.1
20260508002516 30 0.0 0.0 0.00 0.00 0.00 79 1021.2
20260508001516 31 0.0 0.9 0.00 0.00 0.00 78 1021.0
20260508000516 31 0.0 0.9 0.00 0.00 0.00 78 1020.9
20260507235515 31 0.0 0.0 0.00 0.00 0.00 77 1020.8
20260507234516 31 0.0 0.0 0.00 0.00 0.00 76 1020.8
20260507233555 32 0.0 0.0 0.00 0.00 0.00 75 1020.7
20260507232515 32 338 0.9 0.9 0.00 0.00 0.00 75 1020.6
20260507231536 32 338 0.9 1.7 0.00 0.00 0.00 74 1020.5
20260507230516 33 0.0 0.9 0.00 0.00 0.00 73 1020.4
20260507225516 33 338 0.9 1.7 0.00 0.00 0.00 72 1020.4
20260507224535 33 0.0 0.0 0.00 0.00 0.00 71 1020.3
20260507223515 34 338 0.9 1.7 0.00 0.00 0.00 70 1020.2
20260507222516 34 0.0 1.7 0.00 0.00 0.00 69 1020.1
20260507221536 34 45 0.9 1.7 0.00 0.00 0.00 68 1020.1
20260507220515 35 0.0 0.9 0.00 0.00 0.00 66 1019.9
20260507215517 35 45 0.9 1.7 0.00 0.00 0.00 65 1019.9
20260507214517 36 0.0 0.9 0.00 0.00 0.00 64 1019.8
20260507213517 37 0.0 0.9 0.00 0.00 0.00 62 1019.9
20260507212517 37 0.0 0.9 0.00 0.00 0.00 61 1019.6
20260507211517 37 0.0 0.9 0.00 0.00 0.00 59 1019.4
20260507210517 38 0.0 0.9 0.00 0.00 0.00 58 1019.3
20260507205517 38 0.0 1.7 0.00 0.00 0.00 56 1019.1
20260507204517 38 90 0.9 2.6 0.00 0.00 0.00 55 1019.0
20260507203517 39 23 0.9 1.7 0.00 0.00 0.00 56 1018.9
20260507202517 40 0 2.6 5.2 0.00 0.00 0.00 56 1018.9
20260507201517 40 0 0.9 2.6 0.00 0.00 0.00 53 1018.5
20260507200517 41 0.0 0.9 0.00 0.00 0.00 50 1018.5
20260507195517 42 0 0.9 1.7 0.00 0.00 0.00 49 1018.4
20260507194517 43 0.0 1.7 0.00 0.00 0.00 45 1018.3
20260507193517 44 0.0 0.9 0.00 0.00 0.00 39 1018.1
20260507192517 46 0 0.9 1.7 0.00 0.00 0.00 36 1018.0
20260507191537 47 0 0.9 2.6 0.00 0.00 0.00 33 1017.9
20260507190517 49 0.0 0.9 0.00 0.00 0.00 30 1017.7
20260507185517 50 23 0.9 2.6 0.00 0.00 0.00 29 1017.6
20260507184517 51 23 0.9 2.6 0.00 0.00 0.00 28 1017.6
20260507183517 52 23 1.7 3.5 0.00 0.00 0.00 27 1017.5
20260507182517 53 45 1.7 3.5 0.00 0.00 0.00 24 1017.4
20260507181517 54 45 0.9 3.5 0.00 0.00 0.00 23 1017.3
20260507180517 54 45 1.7 3.5 0.00 0.00 0.00 24 1017.2
20260507175517 55 45 2.6 5.2 0.00 0.00 0.00 23 1017.0
20260507174517 55 23 2.6 4.3 0.00 0.00 0.00 23 1016.9
20260507173517 56 23 1.7 3.5 0.00 0.00 0.00 21 1016.8
20260507172517 57 23 2.6 4.3 0.00 0.00 0.00 19 1016.7
20260507171537 57 0 1.7 3.5 0.00 0.00 0.00 21 1016.6
20260507170537 57 23 3.5 6.1 0.00 0.00 0.00 21 1016.6
20260507165517 58 23 3.5 6.1 0.00 0.00 0.00 22 1016.4
20260507164517 58 338 1.7 4.3 0.00 0.00 0.00 20 1016.3
20260507163517 57 315 1.7 5.2 0.00 0.00 0.00 21 1016.3
20260507162517 57 315 3.5 5.2 0.00 0.00 0.00 22 1016.3
20260507161517 57 0 4.3 7.8 0.00 0.00 0.00 23 1016.2
20260507160517 57 315 1.7 5.2 0.00 0.00 0.00 23 1016.0
20260507155537 57 315 2.6 6.1 0.00 0.00 0.00 22 1016.0
20260507154517 57 23 0.9 1.7 0.00 0.00 0.00 21 1016.0
20260507153537 57 338 3.5 7.0 0.00 0.00 0.00 22 1016.0
20260507152517 57 338 5.2 8.7 0.00 0.00 0.00 22 1015.9
20260507151517 57 45 4.3 7.8 0.00 0.00 0.00 23 1015.8
20260507150517 57 0 4.3 7.0 0.00 0.00 0.00 25 1015.8
20260507145517 57 0 2.6 5.2 0.00 0.00 0.00 23 1015.8
20260507144537 57 338 4.3 7.0 0.00 0.00 0.00 24 1015.8
20260507143517 56 0 4.3 7.8 0.00 0.00 0.00 24 1015.6
20260507142517 55 23 2.6 6.1 0.00 0.00 0.00 26 1015.6
20260507141516 55 45 1.7 4.3 0.00 0.00 0.00 25 1015.6
20260507140516 56 45 4.3 8.7 0.00 0.00 0.00 24 1015.6
20260507135517 57 248 2.6 6.1 0.00 0.00 0.00 24 1015.5
20260507134517 57 113 5.2 8.7 0.00 0.00 0.00 25 1015.5
20260507133517 57 0 2.6 7.0 0.00 0.00 0.00 26 1015.5
20260507132516 56 0 2.6 5.2 0.00 0.00 0.00 25 1015.5
20260507131537 56 23 2.6 7.0 0.00 0.00 0.00 25 1015.4
20260507130536 57 23 4.3 8.7 0.00 0.00 0.00 26 1015.5
20260507125537 56 0 3.5 6.1 0.00 0.00 0.00 28 1015.3
20260507124517 54 45 1.7 4.3 0.00 0.00 0.00 27 1015.3
20260507123516 54 68 1.7 4.3 0.00 0.00 0.00 29 1015.2
20260507122517 55 0 3.5 6.1 0.00 0.00 0.00 25 1015.2
20260507121516 57 0 5.2 9.6 0.00 0.00 0.00 26 1015.2
20260507120517 57 0 4.3 8.7 0.00 0.00 0.00 28 1015.2
20260507115517 56 23 2.6 6.1 0.00 0.00 0.00 29 1015.2
20260507114557 55 0 4.3 7.8 0.00 0.00 0.00 32 1015.2
20260507113516 54 270 0.9 1.7 0.00 0.00 0.00 26 1015.1
20260507112536 54 315 2.6 7.0 0.00 0.00 0.00 28 1015.2
20260507111517 55 338 3.5 7.0 0.00 0.00 0.00 25 1015.2
20260507110537 56 248 3.5 8.7 0.00 0.00 0.00 28 1015.1
20260507105516 55 270 4.3 8.7 0.00 0.00 0.00 26 1015.1
20260507104516 54 270 1.7 4.3 0.00 0.00 0.00 29 1015.0
20260507103516 55 0 4.3 7.8 0.00 0.00 0.00 28 1015.0
20260507102536 54 45 1.7 2.6 0.00 0.00 0.00 31 1014.9
20260507101517 54 270 4.3 7.8 0.00 0.00 0.00 28 1014.9
20260507100517 55 270 3.5 7.8 0.00 0.00 0.00 29 1014.8
20260507095516 54 248 2.6 5.2 0.00 0.00 0.00 32 1014.7
20260507094537 54 315 2.6 6.1 0.00 0.00 0.00 36 1014.7
20260507093516 54 270 2.6 7.0 0.00 0.00 0.00 34 1014.7
20260507092516 53 180 2.6 6.1 0.00 0.00 0.00 40 1014.6
20260507091517 53 23 1.7 4.3 0.00 0.00 0.00 36 1014.6
20260507090517 53 293 2.6 6.1 0.00 0.00 0.00 39 1014.6
20260507085516 52 0 1.7 4.3 0.00 0.00 0.00 44 1014.6
20260507084517 51 0 0.9 3.5 0.00 0.00 0.00 46 1014.6
20260507083536 51 338 2.6 4.3 0.00 0.00 0.00 50 1014.7
20260507082536 50 315 1.7 3.5 0.00 0.00 0.00 52 1014.5
20260507081517 50 338 2.6 7.0 0.00 0.00 0.00 50 1014.5
20260507080516 49 270 1.7 4.3 0.00 0.00 0.00 53 1014.4
20260507075516 49 270 1.7 3.5 0.00 0.00 0.00 54 1014.4
20260507074517 48 248 1.7 3.5 0.00 0.00 0.00 52 1014.4
20260507073517 48 338 0.9 3.5 0.00 0.00 0.00 52 1014.4
20260507072516 48 248 1.7 3.5 0.00 0.00 0.00 52 1014.4
20260507071517 48 293 1.7 3.5 0.00 0.00 0.00 51 1014.3